STARLINK-1350, 45535

Orbit data source: Space-Track

STARLINK-1350, 45535 is a payload satellite owned by SpaceX/Seattle (US) in LEO that was launched on Wed, 22 Apr 2020 UTC via an FALCON 9 launch vehicle from the Air Force Eastern Test Range (AFETR). Payload-class satellites include a variety of spacecraft equipped with specific instruments for various scientific and technological missions. These include communications satellites like Starlink; space stations such as the ISS; scientific satellites like the Hubble; Earth observation satellites from companies like Planet Labs, Umbra, and HawkEye 360; GPS; miniature CubeSats for education and research; and military/defense satellites.

Loading next visibility...
Identifier
45535, 2020-025E
Orbit
LEO
Country
Flag of USUS
Related business
Manufacturer
SpaceX/Seattle
Mission
Partially operational Commercial Communications
Bus & Motor
STARLINK, Unknown motor
Mass
260 kg wet, ~248 kg dry
Launch date (UTC)
2020-04-22 (6 years ago)
Launch vehicle
FALCON 9
Launch site
Air Force Eastern Test Range (AFETR)
Object type
Payload
Rocket body
Debris
Shape & HBR
Box + 1 Pan, 10.1 m
Radar Cross Section
13.562 m², Large (>1 m²)

Expand to show TLE details & history
Last TLE update: 12 hours ago

TLE from 12 hours ago
0 STARLINK-1350
1 45535U 20025E   26255.11503474  .00037733  00000-0  85100-3 0  9996
2 45535  53.0668 233.8588 0002522  58.1090 302.0160 15.42895764354862
Epoch: 2026-09-12T02:45Z
TLE epoch observation values (Epoch: 2026-09-12T02:45:39.001Z)
Latitude
-0.00004°
Longitude
-158.68241°
Altitude
437.552 km
Speed
7.651 km/s
True Right ascension
15h 35m 26s
True Declination
0° 00' 00"
Sunlit
Object was in daylight at epoch
Visualization orbit readout
Latitude
Unknown
Longitude
Unknown
Altitude
Unknown
Speed
Unknown
Apparent Right ascension
Unknown
Apparent Declination
Unknown
Sunlit
N/A
Visualization observer readout
Local Sidereal Time
07:39:15
Azimuth
Unknown
Elevation
Unknown
Doppler factor
Unknown
Orbital elements
Apogee altitude
439.56 km
Perigee altitude
436.122 km
Semi-major axis
6,815.978 km
Eccentricity
0.00025
Inclination
53.0668°
RAAN
233.8588°
Arg. of periapsis
58.109°
True anomaly
301.99149°
Mean anomaly
302.016°
Eccentric anomaly
302.00375°
Mean motion
3.85701 °/min
Orbital period
93.34 mins
BSTAR
0.000851
Loading maneuver chart data...
Computing Atmospheric mass density...

Documentation

Showing up to 5 results
|